Weather History for Fort Campbell, KY

Change the Weather History Date:

Wednesday, April 10, 2013

  Actual Average Record
Temperature  
Mean Temperature 76 °F -  
Max Temperature 85 °F 67 °F 86 °F (2001)
Min Temperature 67 °F 45 °F 32 °F (2007)
Cooling Degree Days 11    
Growing Degree Days 26 (Base 50)    
Moisture  
Dew Point 60 °F    
Average Humidity 60    
Maximum Humidity 90    
Minimum Humidity 37    
Precipitation  
Precipitation 0.00 in - - ()
Sea Level Pressure  
Sea Level Pressure 29.90 in    
Wind  
Wind Speed 10 mph (South)    
Max Wind Speed 22 mph    
Max Gust Speed 31 mph    
Visibility 10 miles    
Events      
Averages and records for this station are not official NWS values.
T = Trace of Precipitation, MM = Missing Value Source: NWS Daily Summary

Daily Weather History Graph

Daily Weather History Graph

Search for Another Location

Airport:

Trip Planner

Search our weather history database for the weather conditions in past years. The results will help you decide how hot, cold, wet, or windy it might be!

Date:

Astronomy

Apr. 10, 2013 Rise Set
Actual Time 6:22 AM CDT 7:20 PM CDT
Civil Twilight 5:56 AM CDT 7:46 PM CDT
Nautical Twilight 5:24 AM CDT 8:18 PM CDT
Astronomical Twilight 4:52 AM CDT 8:50 PM CDT
Moon 6:19 AM CDT (4/10) 7:54 PM CDT (4/10)
Length of Visible Light 13h 50m
Length of Day
12h 57m
New Moon, 0% of the Moon is Illuminated
Apr 10
New Moon
Apr 18
First Quarter
Apr 25
Full
May 2
Last Quarter
May 9
New

Hourly Weather History & Observations

Time (CDT) Temp. Heat Index Dew Point Humidity Pressure Visibility Wind Dir Wind Speed Gust Speed Precip Events Conditions
12:55 AM 70.0 °F - 62.6 °F 77% 29.93 in 10.0 mi SSE 8.1 mph - N/A   Clear
1:55 AM 69.1 °F - 62.6 °F 80% 29.93 in 10.0 mi South 6.9 mph - N/A   Clear
2:55 AM 68.9 °F - 62.6 °F 80% 29.91 in 10.0 mi South 8.1 mph - N/A   Clear
3:55 AM 68.9 °F - 63.3 °F 82% 29.92 in 10.0 mi South 8.1 mph - N/A   Clear
4:55 AM 67.5 °F - 64.6 °F 90% 29.93 in 10.0 mi SSW 9.2 mph - N/A   Clear
5:55 AM 68.4 °F - 64.0 °F 86% 29.95 in 10.0 mi SSW 11.5 mph - N/A   Partly Cloudy
6:55 AM 69.1 °F - 64.0 °F 84% 29.98 in 10.0 mi South 6.9 mph - N/A   Overcast
7:55 AM 69.6 °F - 63.1 °F 80% 29.98 in 10.0 mi SSE 9.2 mph - N/A   Mostly Cloudy
8:55 AM 70.5 °F - 62.4 °F 75% 29.99 in 10.0 mi SSE 6.9 mph - N/A   Mostly Cloudy
9:55 AM 73.2 °F - 60.4 °F 64% 30.00 in 10.0 mi South 11.5 mph 21.9 mph N/A   Scattered Clouds
10:55 AM 77.7 °F - 60.3 °F 55% 30.00 in 10.0 mi SSW 16.1 mph 23.0 mph N/A   Mostly Cloudy
11:53 AM 77.0 °F - 60.8 °F 57% 29.99 in 10.0 mi South 10.4 mph - N/A   Light Drizzle
11:55 AM 76.3 °F - 60.3 °F 57% 29.99 in 10.0 mi SSW 12.7 mph - 0.00 in   Light Drizzle
12:02 PM 77.0 °F - 60.8 °F 57% 29.99 in 10.0 mi SSW 12.7 mph - N/A   Mostly Cloudy
12:08 PM 77.0 °F - 60.8 °F 57% 29.99 in 10.0 mi SSW 13.8 mph - N/A   Light Drizzle
12:17 PM 77.0 °F - 60.8 °F 57% 29.99 in 10.0 mi South 13.8 mph 24.2 mph N/A   Mostly Cloudy
12:55 PM 80.2 °F 81.0 °F 60.3 °F 50% 29.97 in 10.0 mi SSW 21.9 mph 31.1 mph 0.00 in   Partly Cloudy
1:55 PM 81.7 °F 82.3 °F 60.8 °F 49% 29.94 in 10.0 mi South 17.3 mph 28.8 mph N/A   Scattered Clouds
2:55 PM 82.9 °F 83.2 °F 60.4 °F 46% 29.90 in 10.0 mi SSW 17.3 mph 27.6 mph N/A   Partly Cloudy
3:55 PM 83.7 °F 83.3 °F 58.3 °F 42% 29.86 in 10.0 mi South 15.0 mph 26.5 mph N/A   Clear
4:55 PM 85.3 °F 84.8 °F 59.2 °F 41% 29.82 in 10.0 mi South 11.5 mph - N/A   Partly Cloudy
5:55 PM 84.6 °F 83.4 °F 55.9 °F 37% 29.80 in 10.0 mi SSW 12.7 mph 20.7 mph N/A   Clear
6:55 PM 81.9 °F 81.9 °F 58.5 °F 45% 29.76 in 10.0 mi SSE 11.5 mph - N/A   Mostly Cloudy
7:55 PM 79.5 °F - 58.1 °F 48% 29.76 in 10.0 mi SSE 8.1 mph - N/A   Clear
8:55 PM 78.6 °F - 56.7 °F 47% 29.75 in 10.0 mi SSE 11.5 mph - N/A   Clear
9:55 PM 77.9 °F - 55.4 °F 46% 29.78 in 10.0 mi South 10.4 mph - N/A   Partly Cloudy
10:55 PM 77.0 °F - 54.7 °F 46% 29.77 in 10.0 mi South 8.1 mph - N/A   Clear
11:55 PM 75.6 °F - 54.9 °F 48% 29.74 in 10.0 mi SSE 8.1 mph - N/A   Clear